FW6973 Weather Reports


Display with metric or nautical units.
time (UTC)temp
F
wind
direction
speed
MPH
gust
MPH
rain 1hr
in
rain 24hr
in
rain mn
in
humidity
%
barometer
mb
20260504100103 49 0 0.0 2.0 0.00 0.00 0.00 92 1010.7
20260504081604 52 0 0.0 2.0 0.00 0.00 0.00 86 1010.8
20260504060126 58 0 0.0 0.0 0.00 0.00 0.00 72 1010.4
20260504050114 61 0 0.0 2.0 0.00 0.00 0.00 65 1010.5
20260504044559 62 270 0.0 4.0 0.00 0.00 0.00 65 1010.4
20260504043107 64 0 0.0 2.0 0.00 0.00 0.00 58 1010.5
20260504041557 65 0 0.0 4.0 0.00 0.00 0.00 62 1010.4
20260504040100 67 271 2.0 3.0 0.00 0.00 0.00 61 1010.3
20260504034601 69 318 0.0 3.0 0.00 0.00 0.00 55 1010.1
20260504033107 72 323 0.0 2.0 0.00 0.00 0.00 49 1010.1
20260504031605 75 323 1.0 2.0 0.00 0.00 0.00 42 1010.0
20260504030110 78 0 0.0 2.0 0.00 0.00 0.00 38 1010.0
20260504024608 80 0 0.0 1.0 0.00 0.00 0.00 36 1010.1
20260504023059 83 0 0.0 1.0 0.00 0.00 0.00 35 1010.2
20260504021601 84 324 0.0 3.0 0.00 0.00 0.00 30 1010.1
20260504020057 85 135 1.0 6.0 0.00 0.00 0.00 26 1010.2
20260504014604 86 331 1.0 5.0 0.00 0.00 0.00 28 1010.3
20260504013114 86 211 1.0 5.0 0.00 0.00 0.00 24 1010.3
20260504011600 85 0 0.0 3.0 0.00 0.00 0.00 26 1010.4
20260504010116 84 0 2.0 5.0 0.00 0.00 0.00 26 1010.4
20260504004557 85 194 1.0 7.0 0.00 0.00 0.00 29 1010.6
20260504003059 85 0 1.0 5.0 0.00 0.00 0.00 28 1010.7
20260504001603 86 121 2.0 9.0 0.00 0.00 0.00 29 1010.9
20260504000101 87 74 1.0 7.0 0.00 0.00 0.00 35 1011.0
20260503234557 86 0 1.0 7.0 0.00 0.00 0.00 33 1011.2
20260503233102 86 173 1.0 7.0 0.00 0.00 0.00 29 1011.3
20260503231557 86 176 2.0 6.0 0.00 0.00 0.00 31 1011.5
20260503230056 86 64 3.0 9.0 0.00 0.00 0.00 30 1011.7
20260503224601 86 284 3.0 8.0 0.00 0.00 0.00 27 1011.9
20260503223100 86 109 1.0 6.0 0.00 0.00 0.00 28 1011.9
20260503221600 85 144 2.0 6.0 0.00 0.00 0.00 32 1012.2
20260503220104 85 178 1.0 9.0 0.00 0.00 0.00 34 1012.3
20260503214601 85 78 2.0 4.0 0.00 0.00 0.00 39 1012.5
20260503213104 84 105 1.0 3.0 0.00 0.00 0.00 34 1012.7
20260503211559 84 67 2.0 7.0 0.00 0.00 0.00 28 1012.8
20260503204609 82 113 1.0 4.0 0.00 0.00 0.00 37 1013.0
20260503203108 82 200 1.0 4.0 0.00 0.00 0.00 34 1013.3
20260503201559 81 143 1.0 6.0 0.00 0.00 0.00 39 1013.5
20260503200056 80 61 1.0 5.0 0.00 0.00 0.00 43 1013.7
20260503194618 79 23 1.0 4.0 0.00 0.00 0.00 44 1013.9
20260503193058 79 88 1.0 4.0 0.00 0.00 0.00 40 1014.1
20260503191604 78 67 1.0 3.0 0.00 0.00 0.00 45 1014.3
20260503184600 75 96 1.0 6.0 0.00 0.00 0.00 49 1014.7
20260503183107 74 0 3.0 6.0 0.00 0.00 0.00 46 1014.7
20260503181558 74 155 1.0 3.0 0.00 0.00 0.00 50 1014.9
20260503180108 74 65 1.0 3.0 0.00 0.00 0.00 48 1015.0
20260503174557 73 0 1.0 5.0 0.00 0.00 0.00 50 1015.1
20260503173203 71 155 0.0 5.0 0.00 0.00 0.00 54 1015.2
20260503171559 70 188 0.0 2.0 0.00 0.00 0.00 61 1015.3